EW9439 Weather Reports


time (UTC)temp
C
wind
direction
speed
KPH
gust
KPH
rain 1hr
cm
rain 24hr
cm
rain mn
cm
humidity
%
barometer
mb
20260504081509 7 120 0.0 0.0 0.00 0.00 0.00 86 1014.6
20260504044536 10 120 0.0 0.0 0.00 0.00 0.00 76 1015.4
20260504043039 10 120 0.0 0.0 0.00 0.00 0.00 76 1015.3
20260504041535 10 120 0.0 0.0 0.00 0.00 0.00 74 1015.5
20260504040042 11 120 0.0 0.0 0.00 0.00 0.00 74 1015.5
20260504034535 11 120 0.0 0.0 0.00 0.00 0.00 73 1015.5
20260504033050 11 120 0.0 0.0 0.00 0.00 0.00 71 1015.7
20260504031554 11 120 0.0 0.0 0.00 0.00 0.00 70 1015.6
20260504030111 11 120 0.0 0.0 0.00 0.00 0.00 70 1015.6
20260504024554 12 120 0.0 0.0 0.00 0.00 0.00 68 1015.5
20260504023058 12 120 0.0 0.0 0.00 0.00 0.00 67 1015.4
20260504021522 12 120 0.0 0.0 0.00 0.00 0.00 67 1015.3
20260504020024 13 120 0.0 0.0 0.00 0.00 0.00 63 1015.0
20260504014524 13 120 0.0 0.0 0.00 0.00 0.00 62 1014.8
20260504013036 14 120 0.0 0.0 0.00 0.00 0.00 60 1014.7
20260504011534 15 120 0.0 0.0 0.00 0.00 0.00 58 1014.6
20260504010039 15 120 0.0 0.0 0.00 0.00 0.00 57 1014.5
20260504004558 16 120 0.0 0.0 0.00 0.00 0.00 54 1014.4
20260504003100 16 120 0.0 0.0 0.00 0.00 0.00 53 1014.2
20260504003002 16 120 0.0 0.0 0.00 0.00 0.00 53 1014.2
20260504001544 17 120 0.0 0.0 0.00 0.00 0.00 52 1014.2
20260504000104 17 120 0.0 0.0 0.00 0.00 0.00 53 1014.1
20260503234530 18 120 0.0 0.0 0.00 0.00 0.00 47 1014.0
20260503233040 18 120 0.0 0.0 0.00 0.00 0.00 47 1014.0
20260503231539 18 120 0.0 0.0 0.00 0.00 0.00 46 1014.1
20260503230048 18 120 0.0 0.0 0.00 0.00 0.00 44 1014.2
20260503224518 19 120 0.0 0.0 0.00 0.00 0.00 44 1014.3
20260503223010 19 120 0.0 0.0 0.00 0.00 0.00 42 1014.2
20260503221511 19 120 0.0 1.6 0.00 0.00 0.00 41 1014.2
20260503220022 19 107 0.0 0.0 0.00 0.00 0.00 41 1014.3
20260503214503 19 99 0.0 0.0 0.00 0.00 0.00 39 1014.3
20260503213043 19 88 0.0 0.0 0.00 0.00 0.00 39 1014.4
20260503211548 19 88 0.0 0.0 0.00 0.00 0.00 40 1014.5
20260503210057 19 88 0.0 0.0 0.00 0.00 0.00 43 1014.5
20260503204503 19 78 0.0 0.0 0.00 0.00 0.00 40 1014.7
20260503203006 19 66 0.0 0.0 0.00 0.00 0.00 42 1015.0
20260503201506 19 312 0.0 1.6 0.00 0.00 0.00 40 1015.0
20260503200008 20 192 0.0 0.0 0.00 0.00 0.00 43 1015.4
20260503194512 20 200 0.0 0.0 0.00 0.00 0.00 40 1015.6
20260503193016 20 194 0.0 0.0 0.00 0.00 0.00 43 1015.9
20260503191557 19 195 0.0 3.2 0.00 0.00 0.00 41 1016.1
20260503190005 19 92 0.0 0.0 0.00 0.00 0.00 45 1016.3
20260503184512 18 275 0.0 1.6 0.00 0.00 0.00 45 1016.5
20260503183008 18 287 0.0 0.0 0.00 0.00 0.00 46 1016.8
20260503181509 18 288 0.0 3.2 0.00 0.00 0.00 48 1016.8
20260503180012 18 288 0.0 0.0 0.00 0.00 0.00 48 1016.8
20260503174511 17 288 0.0 0.0 0.00 0.00 0.00 51 1016.9
20260503173059 17 171 0.0 0.0 0.00 0.00 0.00 50 1017.0
20260503173002 17 171 0.0 0.0 0.00 0.00 0.00 50 1017.0
20260503171510 18 178 0.0 0.0 0.00 0.00 0.00 49 1017.2